User: anonymous   Login
Location: Sungai Kamana Besar
(2.6333°N, 113.4333°E)
Time: 16:16:42
(UTC+00:00)
Language:

Cosmos 1302 Rocket - Orbit

View from above orbital plane
View from above orbital plane
View from above satellite
View from above satellite

Ground track
Ground track

The orbit data is extracted from the following two-line orbital elements,

1 12792U 81084B   22228.82990413  .00000147  00000-0  57523-4 0  9992
2 12792  74.0306 161.7632 0013864 344.4292  15.6434 14.37726180146169
Epoch (UTC): 16 August 2022 19:55:03
Eccentricity: 0.0013864
inclination: 74.0306°
perigee height: 756 km
apogee height: 776 km
right ascension of ascending node: 161.7632°
argument of perigee: 344.4292°
revolutions per day: 14.37726180
mean anomaly at epoch: 15.6434°
orbit number at epoch: 14616

The dashed part of the orbit path shows where the satellite is in the earth's shadow,  

DLR